Wind_Speed
20 41 59 70 71 71 71 74 74 73 78 81 82 86 86 88 89 89 92 98 99 98 97 97 96 97 94 93 92 84 80 81 79 78 78 77 71 71 66 71 72 70 63 59 59
10 17 38 60 69 70 70 72 75 75 77 79 85 86 88 88 89 94 95 99 101 99 94 95 102 99 92 92 89 85 81 76 83 84 86 84 78 80 75 73 72 66 65 65 63
9 14 23 36 61 68 69 70 73 77 79 79 82 89 92 92 94 95 97 99 102 105 100 103 99 102 101 97 90 84 78 84 87 87 85 84 81 77 73 73 80 79 74 70 70
18 19 22 27 38 54 64 66 70 74 77 80 81 84 89 94 100 97 97 100 105 106 106 107 103 102 99 100 102 93 86 89 90 90 89 84 75 75 75 71 75 71 75 74 73
24 25 30 32 34 39 50 64 71 73 75 78 82 85 87 91 96 96 100 100 102 105 107 108 108 110 109 109 111 106 93 85 89 94 86 85 80 75 72 72 75 74 72 67 66
31 32 32 35 39 42 46 50 60 69 72 75 81 85 88 93 93 96 100 106 106 106 106 109 110 109 108 107 108 97 101 98 95 89 90 90 83 77 66 69 70 72 72 66 64
32 34 36 38 40 44 49 53 59 63 67 74 80 84 89 95 98 99 99 102 109 109 107 109 117 116 110 106 105 104 101 103 100 94 90 90 88 85 76 71 62 65 71 72 71
30 31 33 36 39 42 47 53 60 65 70 76 80 83 90 96 99 102 104 105 107 109 111 113 117 124 118 114 111 110 108 104 101 100 97 98 85 77 76 77 73 73 68 65 73
24 25 26 30 32 38 45 53 59 65 72 81 86 89 93 97 101 105 108 112 111 110 112 119 117 119 121 121 121 114 109 103 103 101 103 105 81 85 88 88 85 82 83 82 74
22 25 29 35 39 42 46 52 58 68 75 82 90 95 100 103 107 109 113 113 114 116 116 119 119 118 118 117 110 110 115 114 110 105 110 111 94 95 94 94 91 92 82 78 78
27 27 34 38 39 44 49 54 60 66 70 77 87 96 105 110 116 116 114 116 119 118 119 121 121 117 113 112 109 107 111 113 114 111 107 103 98 103 105 102 95 93 92 89 83
30 33 33 34 41 47 51 56 59 64 67 68 76 93 104 108 113 123 116 116 121 122 124 124 118 116 119 120 116 112 107 105 107 108 104 99 95 97 95 94 91 83 79 72 72
27 27 31 38 44 49 55 57 60 62 61 68 76 76 78 82 96 115 118 115 122 120 122 122 117 119 122 123 119 115 110 105 103 105 101 95 94 88 84 82 79 76 74 74 74
26 29 37 42 45 54 56 56 59 60 59 67 72 68 66 67 73 90 105 107 113 118 124 119 117 119 121 123 125 119 114 115 110 106 103 98 91 86 80 79 75 75 75 74 74
27 30 38 43 49 51 54 55 58 59 63 65 58 53 51 58 60 65 77 95 103 108 116 119 117 116 119 119 121 122 119 119 120 119 111 103 95 76 79 74 76 81 79 75 72
32 35 40 43 45 51 54 54 57 59 60 64 51 46 42 42 50 52 59 69 84 98 103 111 118 118 115 115 117 118 118 117 115 113 114 103 101 75 80 80 83 80 79 76 73
34 37 42 41 46 49 53 58 56 59 61 63 52 52 39 35 40 45 47 56 67 87 90 103 112 117 116 112 109 109 113 114 114 109 98 107 107 83 85 85 84 82 82 79 81
37 41 43 45 47 48 54 60 59 59 62 64 54 44 45 37 32 37 40 46 55 70 87 94 103 112 114 111 110 104 104 109 111 104 99 100 93 81 83 82 81 84 83 81 80
39 41 45 46 47 48 53 59 63 59 60 60 57 46 39 32 31 31 34 37 49 59 77 90 96 103 110 110 111 107 101 100 103 102 101 92 83 84 80 79 82 84 83 73 67
42 45 44 48 49 53 57 62 65 60 60 59 49 46 40 32 27 27 28 34 41 50 63 82 90 94 104 109 110 109 104 100 95 91 91 87 83 73 73 76 82 76 66 59 58
39 43 47 52 52 55 58 61 65 62 61 62 51 45 39 31 27 24 26 28 36 45 54 69 84 91 91 100 107 107 104 100 93 84 78 79 77 75 75 74 76 67 59 55 53
39 45 49 52 52 54 57 56 65 64 61 63 54 45 37 30 24 23 21 24 29 40 49 60 75 86 88 92 96 99 103 100 94 83 75 70 70 71 67 68 74 66 59 52 50
43 43 48 52 57 58 61 57 62 64 61 66 61 47 37 29 21 21 17 21 24 31 42 52 64 76 85 83 85 89 94 98 95 89 76 67 59 61 61 61 68 58 54 53 49
43 43 46 51 56 61 62 59 65 68 61 63 64 53 38 29 21 15 15 16 20 26 35 46 56 66 76 78 76 76 81 87 89 86 80 62 63 57 55 57 62 47 49 47 43
43 46 47 52 56 60 64 63 64 68 62 64 64 55 40 25 19 11 12 13 16 19 28 37 44 52 58 66 71 69 67 71 73 83 72 71 65 60 56 55 45 39 41 42 40
43 47 50 53 55 58 63 61 64 66 63 63 63 54 39 27 16 11 9 9 10 16 20 26 35 41 46 52 57 63 61 56 62 72 77 74 66 63 60 57 43 36 39 44 42
45 48 53 55 53 54 59 58 62 63 64 62 63 56 41 29 21 16 13 8 7 9 14 21 27 34 36 38 47 59 62 58 57 61 72 75 71 69 66 64 47 39 45 47 45
Wind_Direction
247 234 228 229 230 233 234 234 234 234 232 234 234 232 232 234 235 234 232 233 234 235 235 238 239 238 236 233 235 235 236 239 245 251 248 243 243 246 253 254 255 256 259 261 265
297 262 238 231 232 234 235 236 236 236 236 236 235 236 235 236 235 235 234 233 232 233 233 237 236 235 236 236 237 235 234 238 243 247 249 247 247 248 251 256 257 258 261 261 267
247 245 244 243 235 236 237 238 239 239 236 237 237 237 238 239 241 240 235 235 237 235 236 235 237 236 237 238 236 237 237 238 243 246 249 248 246 251 255 260 257 260 265 263 271
261 248 242 237 237 240 241 242 241 242 241 240 240 239 237 239 241 241 238 236 238 236 235 235 236 238 236 236 237 241 241 246 244 245 249 249 248 251 256 254 257 260 262 263 265
280 265 251 245 243 241 242 244 246 245 245 243 241 241 240 240 240 239 240 238 237 238 239 239 238 237 238 237 238 240 240 235 240 242 244 249 251 252 253 253 256 258 262 264 267
281 271 261 251 247 246 245 244 245 245 246 247 245 244 243 243 241 240 239 240 241 239 240 239 237 236 237 237 240 239 238 237 237 241 245 247 247 250 256 255 255 258 263 263 266
278 269 262 257 253 252 251 250 250 247 246 245 245 244 244 243 242 242 240 239 241 242 241 239 235 237 238 236 238 241 237 234 237 242 244 246 247 257 252 252 256 260 261 262 266
279 271 261 260 262 262 260 256 254 252 251 250 246 243 242 243 242 241 240 239 239 240 241 239 238 234 237 238 239 239 236 239 241 242 246 250 250 250 248 249 250 253 261 266 268
279 274 273 268 275 281 272 265 261 258 256 252 249 247 246 244 242 241 239 239 238 238 238 241 238 236 238 240 239 239 240 241 237 241 245 248 243 247 250 252 253 256 263 266 269
284 287 285 293 289 286 285 279 272 266 260 257 253 251 249 247 245 242 241 240 239 238 238 238 239 239 238 239 241 243 242 243 245 249 250 250 243 247 249 252 254 260 263 265 266
299 297 296 288 288 288 289 290 286 279 269 264 259 255 252 248 247 245 242 240 240 239 238 238 239 241 242 240 237 241 241 242 243 245 246 247 245 248 251 254 257 261 261 263 266
298 296 294 295 294 297 297 297 295 289 285 277 268 258 256 255 253 252 248 245 242 240 239 238 239 239 240 238 238 239 241 243 244 244 244 248 247 248 251 254 257 260 261 261 262
308 302 302 306 306 305 304 302 300 294 291 285 280 276 268 256 251 252 252 246 245 244 243 240 238 237 238 238 239 239 239 241 244 247 245 245 246 247 249 252 254 256 258 263 268
312 307 309 314 312 311 309 307 305 303 301 298 293 287 280 269 257 247 246 247 244 242 242 242 240 238 237 238 239 239 240 238 240 244 248 249 245 247 250 252 253 253 257 267 270
326 317 317 319 316 315 314 313 313 311 310 306 299 291 282 273 263 253 247 243 240 238 238 238 239 238 238 238 239 239 240 239 240 242 244 249 250 250 254 255 255 254 259 264 266
328 324 324 325 322 323 322 322 321 320 318 320 313 304 296 274 266 257 248 242 237 237 235 233 234 236 238 238 238 238 239 240 240 241 242 244 250 243 248 250 252 258 260 262 265
329 328 327 326 331 330 335 334 326 324 326 329 325 315 307 290 271 260 250 244 236 233 235 230 231 234 234 237 238 240 241 241 241 242 242 243 246 242 244 250 254 257 259 260 264
331 331 331 329 329 335 339 339 335 334 335 334 328 320 310 302 279 265 254 243 238 232 230 230 229 229 232 233 236 237 238 241 242 242 241 243 244 246 243 245 248 253 256 261 264
333 333 334 338 334 336 339 342 343 340 339 338 332 323 318 305 286 268 254 242 238 232 226 227 228 228 229 231 232 234 236 238 240 241 241 243 243 241 243 243 242 246 254 262 262
335 334 342 346 344 340 341 345 345 342 341 340 335 327 320 311 288 271 254 246 235 231 228 226 228 229 228 227 229 232 234 234 236 238 239 240 241 242 242 240 242 246 252 255 257
335 339 340 341 342 347 343 344 345 345 344 342 343 334 323 315 298 278 262 244 237 233 227 226 226 228 229 228 228 230 233 235 236 236 235 236 237 237 235 237 244 245 246 247 249
344 342 342 346 344 349 348 345 345 347 346 345 346 341 328 318 303 287 271 255 235 233 229 224 225 227 228 227 229 229 231 233 235 234 233 233 235 236 238 239 243 244 244 246 248
341 342 343 347 349 348 350 347 348 349 349 348 351 346 338 323 312 288 275 260 247 231 231 227 225 226 228 228 228 228 229 231 231 232 231 230 231 232 235 235 239 241 242 241 243
332 339 340 345 347 350 349 348 349 349 351 351 353 350 345 330 316 292 283 264 247 233 227 228 226 224 226 227 229 229 229 228 229 230 230 225 225 228 229 231 233 234 235 232 234
331 331 336 339 343 345 348 347 348 351 352 352 356 354 347 341 321 314 284 273 255 238 225 226 230 229 228 224 225 228 229 227 226 227 225 223 223 225 225 228 230 222 220 217 216
326 329 331 333 338 341 345 346 349 352 352 353 356 357 354 349 339 330 305 273 269 247 228 220 223 231 228 225 221 222 226 224 221 223 223 222 217 218 221 221 224 214 207 204 205
319 324 327 329 337 341 345 349 349 352 353 354 356 359 359 354 349 344 335 317 290 262 227 216 212 216 222 220 217 219 216 215 215 215 216 214 209 209 213 213 215 203 196 197 199
Height
10647 10652 10658 10665 10671 10677 10682 10688 10694 10700 10706 10712 10717 10721 10727 10733 10737 10743 10746 10743 10751 10761 10773 10776 10782 10786 10795 10799 10805 10812 10829 10836 10831 10822 10824 10834 10847 10858 10863 10862 10863 10865 10868 10868 10872
10646 10648 10652 10657 10663 10667 10672 10677 10682 10687 10692 10697 10702 10707 10713 10719 10722 10723 10727 10730 10735 10741 10753 10759 10764 10770 10782 10785 10796 10805 10822 10823 10811 10803 10803 10816 10835 10843 10853 10853 10854 10856 10859 10860 10865
10645 10646 10648 10650 10654 10657 10661 10665 10669 10673 10677 10682 10687 10692 10697 10701 10702 10704 10712 10715 10718 10728 10739 10743 10744 10753 10767 10772 10786 10794 10813 10801 10796 10792 10784 10801 10823 10835 10843 10846 10843 10847 10849 10854 10855
10641 10641 10641 10642 10643 10645 10649 10652 10655 10658 10661 10666 10672 10675 10679 10681 10678 10686 10694 10701 10700 10708 10717 10722 10727 10739 10754 10760 10762 10775 10791 10787 10780 10777 10775 10792 10805 10828 10830 10832 10832 10836 10838 10843 10844
10636 10635 10635 10635 10636 10637 10639 10641 10643 10644 10648 10651 10654 10656 10659 10658 10659 10672 10675 10678 10682 10689 10698 10702 10709 10718 10734 10740 10739 10761 10775 10772 10762 10762 10767 10772 10802 10808 10822 10816 10818 10826 10827 10831 10832
10627 10626 10625 10625 10625 10626 10627 10628 10627 10630 10632 10634 10635 10638 10639 10636 10646 10648 10657 10658 10661 10669 10677 10683 10690 10695 10708 10716 10722 10745 10754 10756 10750 10751 10755 10769 10786 10798 10805 10798 10806 10809 10819 10821 10824
10617 10615 10614 10614 10615 10614 10615 10614 10612 10613 10613 10612 10614 10618 10615 10615 10619 10625 10634 10637 10640 10646 10655 10660 10663 10672 10689 10700 10711 10720 10731 10737 10742 10742 10746 10752 10776 10799 10791 10782 10794 10796 10803 10809 10815
10606 10604 10604 10604 10604 10603 10601 10599 10597 10595 10594 10591 10591 10593 10590 10588 10594 10601 10604 10611 10615 10625 10630 10631 10636 10650 10663 10679 10687 10694 10704 10721 10739 10730 10736 10731 10782 10778 10769 10770 10780 10783 10793 10798 10803
10599 10597 10596 10595 10594 10592 10588 10584 10582 10578 10574 10570 10568 10568 10565 10564 10565 10570 10573 10581 10589 10597 10604 10598 10614 10630 10637 10653 10667 10677 10694 10712 10712 10716 10714 10718 10772 10760 10753 10755 10767 10776 10785 10792 10797
10592 10591 10588 10586 10584 10580 10575 10568 10564 10558 10552 10550 10546 10544 10540 10537 10534 10539 10543 10554 10562 10569 10578 10578 10588 10602 10618 10629 10659 10672 10678 10684 10696 10697 10696 10711 10750 10741 10737 10739 10759 10767 10776 10783 10786
10584 10583 10580 10576 10572 10567 10562 10554 10544 10536 10532 10527 10519 10514 10508 10507 10501 10502 10515 10525 10530 10540 10550 10554 10563 10585 10612 10619 10626 10635 10645 10658 10667 10675 10673 10700 10724 10727 10728 10738 10749 10758 10762 10766 10771
10575 10572 10569 10565 10561 10555 10547 10538 10529 10516 10504 10501 10489 10480 10480 10484 10485 10468 10492 10499 10500 10509 10516 10525 10552 10572 10572 10583 10598 10610 10625 10637 10644 10653 10668 10680 10705 10712 10719 10729 10738 10744 10749 10753 10755
10566 10562 10559 10555 10549 10541 10531 10521 10508 10497 10489 10476 10461 10454 10446 10447 10448 10437 10445 10465 10471 10482 10490 10505 10536 10539 10545 10557 10573 10591 10607 10620 10626 10630 10650 10668 10682 10696 10710 10720 10728 10734 10735 10736 10740
10558 10555 10549 10545 10536 10526 10515 10504 10490 10478 10469 10452 10433 10422 10415 10409 10407 10407 10406 10421 10437 10452 10460 10480 10503 10515 10522 10535 10549 10567 10586 10599 10609 10615 10633 10645 10672 10683 10698 10710 10717 10720 10720 10721 10726
10551 10546 10541 10532 10524 10513 10501 10487 10473 10460 10444 10430 10412 10398 10392 10379 10378 10380 10379 10388 10400 10413 10422 10454 10473 10487 10496 10513 10525 10547 10561 10574 10587 10599 10614 10632 10648 10693 10685 10700 10700 10699 10705 10712 10715
10544 10538 10531 10523 10512 10500 10487 10473 10458 10443 10426 10404 10388 10380 10371 10362 10358 10356 10358 10364 10375 10385 10398 10423 10439 10455 10475 10489 10505 10521 10536 10550 10564 10581 10601 10627 10628 10688 10674 10681 10680 10688 10694 10700 10703
10537 10530 10522 10513 10501 10489 10476 10461 10446 10427 10408 10390 10374 10358 10355 10350 10343 10342 10344 10347 10356 10366 10381 10395 10411 10433 10449 10467 10486 10506 10519 10529 10543 10566 10606 10610 10616 10675 10658 10669 10670 10676 10678 10686 10687
10528 10521 10513 10504 10491 10479 10465 10451 10432 10414 10394 10375 10363 10353 10342 10337 10332 10329 10331 10334 10339 10348 10365 10373 10388 10406 10426 10450 10465 10484 10498 10514 10528 10554 10581 10588 10617 10655 10645 10650 10661 10653 10659 10669 10680
10520 10512 10504 10493 10480 10467 10456 10441 10422 10406 10391 10372 10351 10340 10335 10329 10321 10318 10319 10322 10323 10332 10344 10355 10368 10382 10404 10426 10442 10461 10481 10496 10508 10533 10557 10580 10611 10620 10628 10633 10632 10634 10646 10665 10672
10512 10503 10494 10484 10472 10458 10443 10430 10414 10398 10383 10368 10351 10335 10325 10319 10313 10308 10309 10311 10314 10319 10329 10341 10355 10366 10378 10402 10421 10441 10460 10476 10493 10518 10545 10569 10589 10608 10610 10609 10603 10625 10648 10657 10660
10507 10496 10487 10475 10462 10451 10434 10421 10407 10392 10375 10360 10344 10328 10318 10311 10305 10300 10298 10302 10306 10309 10317 10327 10339 10351 10367 10387 10401 10422 10444 10461 10483 10508 10533 10554 10571 10580 10587 10594 10594 10619 10637 10642 10647
10501 10491 10480 10469 10457 10446 10433 10418 10402 10386 10371 10353 10336 10323 10310 10303 10298 10294 10293 10292 10298 10301 10306 10314 10324 10337 10349 10368 10388 10410 10429 10448 10467 10497 10519 10539 10556 10565 10578 10585 10579 10607 10622 10632 10637
10494 10486 10474 10463 10452 10437 10425 10412 10399 10382 10367 10348 10330 10316 10305 10296 10293 10288 10287 10287 10289 10295 10299 10306 10312 10324 10337 10355 10372 10392 10411 10430 10455 10477 10506 10526 10550 10555 10563 10571 10560 10598 10611 10618 10624
10488 10482 10471 10460 10448 10435 10420 10405 10391 10375 10362 10346 10327 10311 10302 10293 10288 10284 10281 10282 10282 10286 10289 10293 10301 10310 10323 10345 10363 10380 10396 10417 10440 10465 10493 10525 10530 10544 10551 10553 10550 10589 10598 10603 10612
10483 10474 10466 10455 10443 10432 10418 10403 10389 10373 10356 10342 10327 10310 10299 10292 10285 10280 10278 10276 10277 10280 10284 10288 10295 10304 10318 10334 10353 10369 10385 10406 10431 10455 10480 10507 10518 10531 10536 10541 10560 10577 10584 10591 10600
10478 10468 10459 10450 10438 10427 10415 10398 10383 10370 10355 10342 10327 10311 10299 10290 10284 10279 10276 10275 10275 10277 10281 10287 10293 10299 10311 10326 10345 10359 10378 10399 10417 10441 10468 10489 10508 10517 10523 10528 10554 10567 10574 10581 10593
10468 10462 10452 10443 10435 10422 10411 10398 10383 10369 10356 10342 10326 10312 10300 10292 10285 10279 10276 10275 10274 10275 10278 10283 10287 10295 10305 10319 10333 10345 10363 10382 10401 10424 10447 10469 10488 10495 10504 10514 10543 10557 10566 10574 10585